Home   Weather   Hoofddorp   Past weeks

Flag for Netherlands Past Weather in Hoofddorp, Netherlands — Yesterday and Last 2 Weeks

Now
39 °F

Sunny.


Feels Like: 37 °F
Forecast: 31 / 39 °F
Wind: 3 mph from Southeast

Location: Amsterdam Schiphol Airport

Current Time: Dec 5, 2016 at 3:48:19 pm

Latest Report: Dec 5, 2016 at 2:55 pm


Visibility: 10 mi

Pressure: 30.30 "Hg

Humidity: 70%

Dew Point: 30 °F

Location of HoofddorpLocation

Past Weather in Hoofddorp — Graph

°F

Hoofddorp Temperature Yesterday

Maximum temperature yesterday: 39 °F (at 12:55 pm)
Minimum temperature yesterday: 27 °F (at 2:25 am)
Average temperature yesterday: 32 °F

High & Low Weather Summary for the Past Weeks

 TemperatureHumidityPressure
High57 °F (Nov 21, 1:25 pm)100% (Nov 21, 2:55 am)30.60 "Hg (Nov 21, 2:55 am)
Low23 °F (Nov 29, 8:55 am)53% (Nov 28, 12:55 pm)29.12 "Hg (Nov 20, 2:25 pm)
Average41 °F84%30.16 "Hg
* Reported Nov 20 2:25 pm — Dec 5 2:25 pm, Hoofddorp, Weather by CustomWeather, © 2016

Note: Actual official high and low records may vary slightly from our data, if they occured in-between our weather recording intervals... More about our weather records

Advertising

Hoofddorp Weather History for the Previous 24 Hours

Scroll right to see more
 ConditionsComfort  
Time TempWeatherWind HumidityBarometerVisibility
2:25 pm
Mon, Dec 5
39 °FPassing clouds.3 mph70%30.30 "HgN/A
1:55 pm37 °FPassing clouds.5 mph70%30.30 "HgN/A
1:25 pm37 °FPassing clouds.5 mph70%30.30 "HgN/A
12:55 pm36 °FSunny.5 mph75%30.30 "Hg10 mi
12:25 pm36 °FSunny.5 mph70%30.30 "Hg10 mi
11:55 am34 °FPassing clouds.5 mph75%30.30 "HgN/A
11:25 am34 °FSunny.6 mph75%30.30 "Hg10 mi
10:55 am32 °FSunny.5 mph80%30.30 "Hg10 mi
10:25 am32 °FSunny.3 mph80%30.30 "Hg10 mi
9:55 am30 °FSunny.3 mph80%30.30 "Hg10 mi
9:25 am28 °FSunny.5 mph80%30.30 "Hg10 mi
8:55 am25 °FSunny.5 mph86%30.30 "Hg10 mi
8:25 am25 °FClear.6 mph86%30.30 "Hg10 mi
7:55 am25 °FClear.3 mph80%30.30 "Hg10 mi
7:25 am27 °FClear.5 mph80%30.30 "Hg10 mi
6:55 am25 °FClear.5 mph80%30.30 "Hg10 mi
6:25 am27 °FClear.5 mph80%30.30 "Hg10 mi
5:55 am28 °FClear.5 mph74%30.27 "Hg10 mi
5:25 am28 °FClear.6 mph80%30.30 "Hg10 mi
4:55 am28 °FClear.6 mph74%30.30 "Hg10 mi
3:55 am27 °FClear.6 mph80%30.30 "Hg10 mi
3:25 am28 °FClear.6 mph74%30.30 "Hg10 mi
2:55 am28 °FClear.5 mph80%30.30 "Hg10 mi
2:25 am27 °FClear.6 mph80%30.30 "Hg10 mi
1:55 am28 °FClear.7 mph74%30.30 "Hg10 mi
1:25 am27 °FClear.7 mph80%30.30 "Hg10 mi
12:55 am28 °FClear.6 mph74%30.30 "Hg10 mi
12:25 am28 °FClear.6 mph80%30.30 "Hg10 mi
11:55 pm
Sun, Dec 4
28 °FClear.7 mph80%30.30 "Hg10 mi
11:25 pm28 °FClear.7 mph80%30.33 "Hg10 mi
10:55 pm28 °FPassing clouds.5 mph80%30.30 "HgN/A
10:25 pm30 °FClear.7 mph80%30.30 "Hg10 mi
9:55 pm30 °FClear.8 mph80%30.33 "Hg10 mi
9:25 pm30 °FClear.9 mph80%30.33 "Hg10 mi
8:55 pm30 °FClear.8 mph80%30.33 "Hg10 mi
8:25 pm30 °FClear.8 mph86%30.33 "Hg10 mi
7:55 pm28 °FClear.7 mph86%30.33 "Hg10 mi
7:25 pm30 °FClear.6 mph86%30.33 "Hg10 mi
6:55 pm30 °FClear.6 mph80%30.33 "Hg10 mi
6:25 pm32 °FClear.6 mph80%30.33 "Hg10 mi
5:55 pm32 °FClear.7 mph80%30.33 "Hg10 mi
5:25 pm32 °FClear.5 mph80%30.33 "Hg10 mi
4:55 pm34 °FClear.7 mph75%30.33 "Hg10 mi
4:25 pm36 °FSunny.8 mph75%30.33 "Hg10 mi
3:55 pm36 °FSunny.7 mph75%30.30 "Hg10 mi
3:25 pm37 °FSunny.12 mph70%30.30 "Hg10 mi
Weather by CustomWeather, © 2016

See weather overviewHow to use our weather pages